Location: Zagreb
(45.8000°N, 16.0000°E)
Time: 00:17:05
(UTC+01:00)

YUBILEINY - Visible Passes

Search period start: 31 October 2020 00:00
Search period end: 10 November 2020 00:00
Orbit: 1478 x 1509 km, 82.5° (Epoch: 30 October)

Date Brightness Start Highest point End Pass type
(mag) Time Alt. Az. Time Alt. Az. Time Alt. Az.
31 Oct ? 19:14:17 10° NNE 19:17:19 16° NE 19:17:19 16° NE visible
31 Oct ? 21:09:38 10° N 21:13:13 28° N 21:13:13 28° N visible
31 Oct ? 23:07:35 10° NNW 23:09:07 15° NW 23:09:07 15° NW visible
01 Nov ? 20:20:13 10° N 20:24:04 27° NNE 20:24:04 27° NNE visible
01 Nov ? 22:17:12 10° NNW 22:19:58 22° NNW 22:19:58 22° NNW visible
02 Nov ? 19:31:10 10° N 19:34:55 21° NNE 19:34:55 21° NNE visible
02 Nov ? 21:27:18 10° NNW 21:30:50 28° NNW 21:30:50 28° NNW visible
02 Nov ? 23:26:25 10° NW 23:26:44 11° NW 23:26:44 11° NW visible
03 Nov ? 18:42:50 10° NNE 18:45:48 14° NE 18:45:48 14° NE visible
03 Nov ? 20:37:42 10° N 20:41:42 31° N 20:41:42 31° N visible
03 Nov ? 22:35:20 10° NNW 22:37:37 18° NW 22:37:37 18° NW visible
04 Nov ? 19:48:23 10° N 19:52:36 27° NNE 19:52:36 27° NNE visible
04 Nov ? 21:45:07 10° NNW 21:48:30 26° NNW 21:48:30 26° NNW visible
05 Nov ? 18:59:28 10° N 19:03:30 20° NE 19:03:30 20° NE visible
05 Nov ? 20:55:19 10° N 20:59:25 32° N 20:59:25 32° N visible
05 Nov ? 22:53:51 10° NW 22:55:19 14° NW 22:55:19 14° NW visible
06 Nov ? 18:11:38 10° NNE 18:14:25 13° NE 18:14:25 13° NE visible
06 Nov ? 20:05:48 10° N 20:10:21 33° NNE 20:10:21 33° NNE visible
06 Nov ? 22:03:08 10° NNW 22:06:15 22° NW 22:06:15 22° NW visible
07 Nov ? 19:16:35 10° N 19:21:17 27° NNE 19:21:17 27° NNE visible
07 Nov ? 21:13:04 10° NNW 21:17:12 32° NNW 21:17:12 32° NNW visible
08 Nov ? 18:27:50 10° NNE 18:32:15 18° NE 18:32:15 18° NE visible
08 Nov ? 20:23:21 10° N 20:28:10 38° N 20:28:10 38° N visible
08 Nov ? 22:21:27 10° NNW 22:24:05 18° NW 22:24:05 18° NW visible
09 Nov ? 17:41:15 10° NE 17:42:42 10° NE 17:43:16 10° NE visible
09 Nov ? 19:33:54 10° N 19:39:10 35° NNE 19:39:10 35° NNE visible
09 Nov ? 21:30:59 10° NNW 21:35:05 28° NW 21:35:05 28° NW visible
